{"data":{"norad_id":52273,"intl_designator":"2022-041N","name":"STARLINK-3782","alt_names":[],"object_type":"PAYLOAD","status":"ACTIVE","operator":null,"country":"US","launch_date":"2022-04-21","launch_site_code":"AFETR","launch_vehicle":null,"mission":null,"orbit_class":"UNKNOWN","rcs_meters":null,"size_class":null,"mass_kg":null,"dimensions":null,"purposes":["comms"],"wikipedia_slug":null,"has_3d_model":false,"image_url":null,"decayed_at":null,"tle_current":{"epoch":"2026-09-20T02:02:49.100064Z","epoch_age_seconds":95342,"freshness":"FRESH","line1":"1 52273U 22041N   26263.08529051 -.00000031  00000+0  10770-4 0  9990","line2":"2 52273  53.1573 293.7260 0001428  77.1842 282.9319 15.31697518244020","mean_motion":15.31697518,"eccentricity":0.0001428,"inclination_deg":53.1573,"raan_deg":293.726,"arg_perigee_deg":77.1842,"mean_anomaly_deg":282.9319,"bstar":1.077e-5,"rev_number":24402,"period_min":94.013340302351,"perigee_km":469.76937325703,"apogee_km":471.72541463994,"semimajor_km":6848.8843939485,"source":"CELESTRAK","updated_at":"2026-09-20T09:00:40.013297Z"}}}